FW9093 Weather Reports


time (UTC)temp
C
wind
direction
speed
KPH
gust
KPH
rain 1hr
cm
rain 24hr
cm
rain mn
cm
humidity
%
barometer
mb
20260503030805 13 215 4.8 12.9 0.00 0.00 0.00 40 1011.9
20260503030306 13 197 8.0 12.9 0.00 0.00 0.00 40 1011.9
20260503025805 13 193 9.7 12.9 0.00 0.00 0.00 41 1011.9
20260503025305 13 200 9.7 16.1 0.00 0.00 0.00 40 1011.9
20260503024806 13 176 8.0 11.3 0.00 0.00 0.00 41 1011.9
20260503024305 13 203 4.8 11.3 0.00 0.00 0.00 40 1011.9
20260503023305 13 187 8.0 12.9 0.00 0.00 0.00 41 1011.9
20260503022805 13 201 8.0 12.9 0.00 0.00 0.00 40 1011.9
20260503022305 13 166 8.0 11.3 0.00 0.00 0.00 40 1011.9
20260503021805 13 192 8.0 12.9 0.00 0.00 0.00 40 1011.9
20260503021305 13 180 8.0 12.9 0.00 0.00 0.00 40 1011.9
20260503020805 13 170 8.0 12.9 0.00 0.00 0.00 40 1011.9
20260503015805 13 185 6.4 11.3 0.00 0.00 0.00 39 1011.9
20260503015305 13 157 8.0 11.3 0.00 0.00 0.00 39 1011.9
20260503014805 13 155 8.0 11.3 0.00 0.00 0.00 39 1011.9
20260503014305 13 195 6.4 11.3 0.00 0.00 0.00 38 1011.9
20260503013805 13 192 6.4 11.3 0.00 0.00 0.00 38 1011.9
20260503013305 14 157 6.4 11.3 0.00 0.00 0.00 38 1011.9
20260503012306 14 154 8.0 11.3 0.00 0.00 0.00 37 1011.9
20260503011805 14 183 4.8 9.7 0.00 0.00 0.00 36 1011.9
20260503011305 14 174 4.8 9.7 0.00 0.00 0.00 36 1011.9
20260503010804 14 161 4.8 9.7 0.00 0.00 0.00 36 1011.9
20260503010305 14 205 3.2 9.7 0.00 0.00 0.00 36 1011.9
20260503005805 15 179 6.4 11.3 0.00 0.00 0.00 36 1011.9
20260503005305 15 185 4.8 11.3 0.00 0.00 0.00 35 1011.9
20260503004804 15 198 4.8 11.3 0.00 0.00 0.00 35 1011.9
20260503004305 15 165 4.8 11.3 0.00 0.00 0.00 35 1011.9
20260503003805 15 160 4.8 11.3 0.00 0.00 0.00 34 1011.9
20260503003304 15 180 4.8 11.3 0.00 0.00 0.00 34 1011.9
20260503002805 15 179 6.4 12.9 0.00 0.00 0.00 34 1011.9
20260503002305 15 177 3.2 11.3 0.00 0.00 0.00 33 1011.9
20260503001805 15 185 4.8 9.7 0.00 0.00 0.00 33 1011.9
20260503001305 16 212 4.8 9.7 0.00 0.00 0.00 33 1011.9
20260503000805 15 186 4.8 14.5 0.00 0.00 0.00 32 1011.9
20260503000304 15 192 4.8 9.7 0.00 0.00 0.00 32 1011.9
20260502235805 15 244 4.8 12.9 0.00 0.00 0.00 31 1011.9
20260502235305 15 228 9.7 19.3 0.00 0.00 0.00 31 1011.9
20260502234805 16 184 3.2 9.7 0.00 0.00 0.00 31 1011.9
20260502234305 16 226 3.2 14.5 0.00 0.00 0.00 32 1011.9
20260502233805 16 235 3.2 14.5 0.00 0.00 0.00 31 1011.9
20260502233306 16 207 3.2 9.7 0.00 0.00 0.00 31 1011.9
20260502232805 16 177 8.0 20.9 0.00 0.00 0.00 30 1011.9
20260502232305 16 252 4.8 16.1 0.00 0.00 0.00 30 1011.9
20260502231306 16 186 4.8 9.7 0.00 0.00 0.00 31 1011.9
20260502230805 16 239 8.0 16.1 0.00 0.00 0.00 30 1011.9
20260502230305 16 265 9.7 19.3 0.00 0.00 0.00 31 1011.9
20260502225805 16 201 9.7 19.3 0.00 0.00 0.00 30 1011.9
20260502225305 16 234 9.7 20.9 0.00 0.00 0.00 30 1011.9
20260502224805 16 242 9.7 20.9 0.00 0.00 0.00 30 1011.9
20260502223804 16 207 9.7 25.7 0.00 0.00 0.00 30 1011.9
20260502223305 16 230 11.3 24.1 0.00 0.00 0.00 29 1011.9
20260502222805 16 236 6.4 25.7 0.00 0.00 0.00 30 1011.9
20260502221805 17 235 6.4 27.4 0.00 0.00 0.00 27 1011.9
20260502221305 18 273 9.7 24.1 0.00 0.00 0.00 27 1011.9
20260502220805 18 287 4.8 20.9 0.00 0.00 0.00 28 1011.9
20260502220305 18 234 11.3 27.4 0.00 0.00 0.00 27 1011.9
20260502215805 17 259 11.3 22.5 0.00 0.00 0.00 27 1011.9
20260502215305 17 223 9.7 24.1 0.00 0.00 0.00 27 1011.9
20260502214804 17 238 14.5 29.0 0.00 0.00 0.00 27 1011.9
20260502214305 17 228 11.3 20.9 0.00 0.00 0.00 26 1011.9
20260502213805 17 249 6.4 27.4 0.00 0.00 0.00 27 1011.9
20260502213305 17 226 6.4 29.0 0.00 0.00 0.00 28 1011.9
20260502212805 16 276 8.0 24.1 0.00 0.00 0.00 28 1011.9
20260502212305 17 245 11.3 32.2 0.00 0.00 0.00 27 1011.9
20260502211304 17 242 9.7 20.9 0.00 0.00 0.00 27 1011.9
20260502210804 17 220 4.8 20.9 0.00 0.00 0.00 26 1011.9
20260502205806 17 204 9.7 20.9 0.00 0.00 0.00 26 1011.9
20260502205305 17 220 9.7 27.4 0.00 0.00 0.00 30 1011.9
20260502204804 17 288 6.4 25.7 0.00 0.00 0.00 25 1011.9
20260502204305 17 172 8.0 32.2 0.00 0.00 0.00 26 1011.9
20260502203805 16 240 14.5 33.8 0.00 0.00 0.00 26 1011.9
20260502203305 16 189 11.3 33.8 0.00 0.00 0.00 26 1011.9
20260502202805 16 175 11.3 24.1 0.00 0.00 0.00 25 1011.9
20260502202305 16 230 11.3 24.1 0.00 0.00 0.00 26 1011.9
20260502201805 16 269 14.5 25.7 0.00 0.00 0.00 25 1011.9
20260502200304 16 343 3.2 19.3 0.00 0.00 0.00 30 1011.9
20260502195805 16 242 16.1 27.4 0.00 0.00 0.00 26 1011.9
20260502195305 16 209 8.0 16.1 0.00 0.00 0.00 25 1011.9
20260502194805 16 251 9.7 25.7 0.00 0.00 0.00 25 1011.9
20260502193305 16 171 9.7 20.9 0.00 0.00 0.00 26 1011.9
20260502192805 16 254 12.9 25.7 0.00 0.00 0.00 25 1011.9
20260502192305 16 250 14.5 29.0 0.00 0.00 0.00 26 1011.9
20260502191304 15 217 14.5 25.7 0.00 0.00 0.00 26 1011.9
20260502190805 15 221 19.3 35.4 0.00 0.00 0.00 27 1011.9
20260502190304 16 252 9.7 25.7 0.00 0.00 0.00 27 1011.9
20260502185804 16 203 4.8 25.7 0.00 0.00 0.00 27 1011.9
20260502185305 16 217 4.8 20.9 0.00 0.00 0.00 25 1011.9
20260502184805 16 282 11.3 22.5 0.00 0.00 0.00 26 1011.9
20260502184305 15 246 9.7 14.5 0.00 0.00 0.00 27 1011.9
20260502183804 16 272 9.7 19.3 0.00 0.00 0.00 26 1011.9
20260502183305 15 245 11.3 27.4 0.00 0.00 0.00 26 1011.9
20260502182305 15 288 8.0 24.1 0.00 0.00 0.00 28 1011.9
20260502181804 15 296 8.0 29.0 0.00 0.00 0.00 26 1011.9
20260502181304 15 235 8.0 19.3 0.00 0.00 0.00 26 1011.9
20260502180305 15 312 11.3 22.5 0.00 0.00 0.00 30 1011.9
20260502170305 13 253 8.0 19.3 0.00 0.00 0.00 27 1011.9
20260502164305 13 253 12.9 24.1 0.00 0.00 0.00 28 1011.9
20260502163304 13 238 6.4 12.9 0.00 0.00 0.00 30 1011.9
20260502162805 13 328 8.0 16.1 0.00 0.00 0.00 31 1011.9
20260502162305 13 334 6.4 29.0 0.00 0.00 0.00 31 1011.9
20260502161804 13 302 4.8 20.9 0.00 0.00 0.00 32 1011.9
20260502161305 13 287 6.4 20.9 0.00 0.00 0.00 29 1011.9
20260502160804 12 290 8.0 20.9 0.00 0.00 0.00 31 1011.9
20260502160305 12 303 9.7 22.5 0.00 0.00 0.00 35 1011.9
20260502151804 11 265 4.8 16.1 0.00 0.00 0.00 39 1011.9
20260502150805 11 262 4.8 14.5 0.00 0.00 0.00 40 1011.9
20260502150304 10 328 4.8 11.3 0.00 0.00 0.00 41 1011.9
20260502130304 4 232 4.8 11.3 0.00 0.00 0.00 59 1011.9
20260502123804 3 221 4.8 11.3 0.00 0.00 0.00 60 1011.9
20260502122804 2 223 4.8 9.7 0.00 0.00 0.00 62 1011.9
20260502122306 2 207 3.2 9.7 0.00 0.00 0.00 63 1011.9
20260502121804 2 237 6.4 11.3 0.00 0.00 0.00 63 1011.9
20260502121304 2 221 4.8 9.7 0.00 0.00 0.00 63 1011.9
20260502120304 2 237 4.8 9.7 0.00 0.00 0.00 65 1011.9
20260502115804 1 214 4.8 9.7 0.00 0.00 0.00 66 1011.9
20260502115306 1 221 4.8 9.7 0.00 0.00 0.00 67 1011.9
20260502114805 1 220 4.8 11.3 0.00 0.00 0.00 68 1011.9
20260502114305 1 225 4.8 8.0 0.00 0.00 0.00 69 1011.9
20260502113804 1 235 4.8 8.0 0.00 0.00 0.00 71 1011.9
20260502113304 1 234 4.8 4.8 0.00 0.00 0.00 72 1011.9
20260502112804 1 176 3.2 4.8 0.00 0.00 0.00 72 1011.9
20260502112306 1 186 3.2 4.8 0.00 0.00 0.00 72 1011.9
20260502111805 1 193 3.2 4.8 0.00 0.00 0.00 71 1011.9
20260502111303 1 196 3.2 4.8 0.00 0.00 0.00 70 1011.9
20260502110804 1 192 3.2 8.0 0.00 0.00 0.00 70 1011.9
20260502110304 1 204 3.2 8.0 0.00 0.00 0.00 69 1011.9
20260502105804 1 208 3.2 4.8 0.00 0.00 0.00 70 1011.9
20260502105306 1 186 3.2 4.8 0.00 0.00 0.00 71 1011.9
20260502104804 1 164 3.2 4.8 0.00 0.00 0.00 70 1011.9
20260502104304 1 189 3.2 4.8 0.00 0.00 0.00 70 1011.9
20260502103804 1 180 3.2 4.8 0.00 0.00 0.00 67 1011.9
20260502103304 1 169 3.2 8.0 0.00 0.00 0.00 64 1011.9
20260502102306 2 159 4.8 9.7 0.00 0.00 0.00 59 1011.9
20260502101304 3 169 4.8 9.7 0.00 0.00 0.00 57 1011.9
20260502100804 3 158 4.8 11.3 0.00 0.00 0.00 56 1011.9
20260502100304 3 163 6.4 11.3 0.00 0.00 0.00 56 1011.9
20260502091304 2 184 6.4 12.9 0.00 0.00 0.00 54 1011.9
20260502090804 2 146 8.0 16.1 0.00 0.00 0.00 55 1011.9
20260502090304 2 156 6.4 12.9 0.00 0.00 0.00 57 1011.9
20260502071304 2 122 3.2 4.8 0.00 0.00 0.00 63 1011.9
20260502070804 2 131 1.6 3.2 0.00 0.00 0.00 65 1011.9
20260502070304 2 148 1.6 4.8 0.00 0.00 0.00 65 1011.9
20260502065804 2 191 3.2 3.2 0.00 0.00 0.00 62 1011.9
20260502065306 2 225 3.2 3.2 0.00 0.00 0.00 62 1011.9
20260502064804 3 153 1.6 3.2 0.00 0.00 0.00 61 1011.9
20260502064304 3 135 1.6 4.8 0.00 0.00 0.00 61 1011.9
20260502063803 3 95 3.2 8.0 0.00 0.00 0.00 61 1011.9
20260502063304 4 130 3.2 8.0 0.00 0.00 0.00 58 1011.9
20260502062804 4 124 3.2 8.0 0.00 0.00 0.00 58 1011.9
20260502062306 4 113 3.2 8.0 0.00 0.00 0.00 53 1011.9
20260502061305 4 111 3.2 9.7 0.00 0.00 0.00 51 1011.9
20260502060805 4 110 3.2 9.7 0.00 0.00 0.00 51 1011.9
20260502060305 4 120 4.8 8.0 0.00 0.00 0.00 51 1011.9
20260502055306 4 141 3.2 11.3 0.00 0.00 0.00 52 1011.9
20260502054805 4 105 4.8 11.3 0.00 0.00 0.00 52 1011.9
20260502054306 4 131 3.2 9.7 0.00 0.00 0.00 52 1011.9
20260502053805 4 113 3.2 8.0 0.00 0.00 0.00 52 1011.9
20260502053305 5 133 3.2 8.0 0.00 0.00 0.00 52 1011.9
20260502052806 4 127 3.2 4.8 0.00 0.00 0.00 52 1011.9
20260502052306 4 135 3.2 4.8 0.00 0.00 0.00 51 1011.9
20260502051806 4 142 3.2 4.8 0.00 0.00 0.00 51 1011.9
20260502051307 5 124 3.2 4.8 0.00 0.00 0.00 51 1011.9
20260502050818 5 119 1.6 3.2 0.00 0.00 0.00 51 1011.9
20260502045805 5 121 3.2 3.2 0.00 0.00 0.00 51 1011.9
20260502045306 5 86 1.6 3.2 0.00 0.00 0.00 52 1011.9
20260502044805 5 64 1.6 1.6 0.00 0.00 0.00 53 1011.9
20260502044305 5 70 3.2 4.8 0.00 0.00 0.00 54 1011.9
20260502043805 5 31 1.6 3.2 0.00 0.00 0.00 51 1011.9
20260502043306 5 167 1.6 3.2 0.00 0.00 0.00 51 1011.9
20260502042805 6 173 0.0 1.6 0.00 0.00 0.00 53 1011.9
20260502042306 6 142 0.0 0.0 0.00 0.00 0.00 49 1011.9
20260502041305 6 143 1.6 3.2 0.00 0.00 0.00 51 1011.9
20260502040805 6 146 1.6 3.2 0.00 0.00 0.00 50 1011.9
20260502040306 6 149 1.6 3.2 0.00 0.00 0.00 49 1011.9
20260502035805 6 146 1.6 3.2 0.00 0.00 0.00 49 1011.9
20260502035306 6 170 1.6 3.2 0.00 0.00 0.00 47 1011.9
20260502034805 6 141 1.6 3.2 0.00 0.00 0.00 48 1011.9
20260502034306 6 153 3.2 3.2 0.00 0.00 0.00 47 1011.9
20260502033304 6 152 1.6 4.8 0.00 0.00 0.00 45 1011.9
20260502032805 6 175 1.6 4.8 0.00 0.00 0.00 42 1011.9
20260502032306 6 129 3.2 4.8 0.00 0.00 0.00 42 1011.9
20260502031805 6 134 3.2 4.8 0.00 0.00 0.00 42 1011.9
20260502031305 6 140 3.2 4.8 0.00 0.00 0.00 42 1011.9